Regional Weather Roundup
Issued by NWS

Home | Current Version | Previous Version | Graphics & Text | Print | Product List | Glossary On
Versions: 1 2 3 4 5 6 7 8 9 10 11 12 13 14 15 16 17 18 19 20 21 22 23 24 25 26 27 28
000
ASUS45 KTFX 251310
RWRMT
MONTANA REGIONAL WEATHER ROUNDUP
NATIONAL WEATHER SERVICE GREAT FALLS MT
700 AM MDT MON JUL 25 2016

NOTE: "FAIR" INDICATES FEW OR NO CLOUDS BELOW 12000 FEET WITH NO
SIGNIFICANT WEATHER AND/OR OBSTRUCTIONS TO VISIBILITY.

MTZ001>007-043-251400-
WEST OF THE DIVIDE

CITY           SKY/WX    TMP DP  RH WIND       PRES   REMARKS
KALISPELL      CLEAR     51  50  96 VRB5      30.09R
MISSOULA       CLEAR     54  46  74 CALM      30.12R
BUTTE          CLEAR     47  36  65 SE5       30.21R
MULLAN PASS    CLEAR     60  42  51 CALM      30.22R
ANACONDA         N/A     54  39  58 SW5       30.18R
DEER LODGE       N/A     48  43  81 CALM      30.20R
EUREKA           N/A     52  48  87 CALM      30.11R
HAMILTON         N/A     52  43  71 CALM      30.13R
LIBBY            N/A     50  45  81 CALM      30.10R
RONAN            N/A     50  47  89 NE1       30.13R
$$

MTZ008-052>055-251400-
SOUTHWEST MONTANA

CITY           SKY/WX    TMP DP  RH WIND       PRES   REMARKS
BOZEMAN        CLEAR     53  42  66 SE5       30.15R
DILLON         CLEAR     51  36  56 SW9       30.17R
W YELLOWSTONE  CLOUDY    36  28  75 CALM      30.32R
ENNIS          CLEAR     48  32  53 CALM      30.24R
THREE FORKS      N/A     46  46 100 CALM      30.11R
TWIN BRIDGES     N/A     49  35  58 E2        30.14R
$$

MTZ009-010-012-014-046-048-049-054-251400-
EAST SLOPES AND CENTRAL MONTANA

CITY           SKY/WX    TMP DP  RH WIND       PRES   REMARKS
CUT BANK       CLEAR     56  47  71 NW6       30.09R
GREAT FALLS    CLEAR     55  43  63 SW7       30.09R
MALMSTROM AFB  CLEAR     60  45  58 SW3       30.09R
HELENA         CLEAR     61  41  47 CALM      30.12R
CHOTEAU          N/A     59  43  55 SW7       30.12R
$$

MTZ011-013-016-021-045-047-050-051-251400-
NORTH CENTRAL MONTANA

CITY           SKY/WX    TMP DP  RH WIND       PRES   REMARKS
HAVRE          SUNNY     56  49  77 CALM      30.01R
LEWISTOWN      SUNNY     57  46  66 SE6       30.11R
N BAR RANCH      N/A     63  43  48 CALM      30.12S
CHINOOK          N/A     55  52  88 CALM      30.00S
$$

MTZ017>020-022>027-061-062-251400-
NORTHEAST MONTANA

CITY           SKY/WX    TMP DP  RH WIND       PRES   REMARKS
GLASGOW        SUNNY     64  54  69 CALM      29.98R
JORDAN           N/A     57  46  66 W5        30.00R
SIDNEY         SUNNY     62  54  74 N5        29.97R
WOLF POINT     SUNNY     60  55  83 S3        29.98R
PLENTYWOOD       N/A     61  55  82 CALM      29.99S
POPLAR           N/A     63  57  82 CALM      29.98R
SCOBEY           N/A     53  44  71 CALM      29.99S
$$

MTZ028>42-056>058-251400-
SOUTHCENTRAL AND SOUTHEAST MONTANA

CITY           SKY/WX    TMP DP  RH WIND       PRES   REMARKS
BAKER          SUNNY     64  51  62 CALM      30.02S
BILLINGS       MOSUNNY   62  42  47 SW9       30.05S
LIVINGSTON     CLEAR     52  37  56 NW8       30.14R
MILES CITY     SUNNY     66  48  52 CALM      29.99R
FORSYTH          N/A     63  46  55 SW5       29.99R
LAUREL           N/A     57  43  59 SW5       30.05R
ROUNDUP          N/A     57  42  57 SW6       29.97R
$$

REGIONAL REPORTS...DAKOTAS

CITY           SKY/WX    TMP DP  RH WIND       PRES   REMARKS
WILLISTON      SUNNY     66  57  72 CALM      29.97R
MINOT          SUNNY     67  59  75 SE7       29.98S
DICKINSON      SUNNY     63  53  70 S8        29.98F
CROSBY           N/A     61  61 100 CALM      30.00S
BISMARCK       SUNNY     66  62  87 E5        30.00F
GRAND FORKS    MOSUNNY   67  61  81 NW3       30.00F
FARGO          SUNNY     67  59  75 SW6       30.04R
BUFFALO SD       N/A     64  51  62 CALM      29.99R
RAPID CITY     SUNNY     68  56  65 S8        30.09R
$$

REGIONAL REPORTS...WYOMING/IDAHO/WASHINGTON

CITY           SKY/WX    TMP DP  RH WIND       PRES   REMARKS
GILLETTE       SUNNY     65  53  65 VRB5      30.11R
SHERIDAN       SUNNY     60  44  55 CALM      30.07R
BUFFALO WY     SUNNY     68  38  33 CALM      30.14R
CODY           CLEAR     64  34  32 SW6       30.15R
YELLOWSTONE LA   N/A     38  33  82 NW3       30.40R
IDAHO FALLS    CLEAR     44  40  85 N5        30.16R
SALMON         CLEAR     50  41  71 CALM      30.13R
BOISE          CLEAR     64  37  36 SE3       30.02R
SPOKANE        CLEAR     62  51  67 E5        30.05R
$$

REGIONAL REPORTS...ALBERTA

CITY           SKY/WX    TMP DP  RH WIND       PRES   REMARKS
EDMONTON       CLEAR     57  50  77 W5        30.06R
CALGARY        PTCLDY    59  50  72 CALM      30.16R
LETHBRIDGE     PTCLDY    59  52  77 W15       30.08R
MEDICINE HAT   MOSUNNY   59  55  88 SE3       30.00R
WATERTON GATE    N/A     55  46  71 E2          N/A
CARDSTON         N/A     57  48  72 NW3         N/A
MILK RIVER       N/A     59  50  72 NW8         N/A
$$

REGIONAL REPORTS...SASKATCHEWAN

CITY           SKY/WX    TMP DP  RH WIND       PRES   REMARKS
SWIFT CURRENT  SUNNY     61  55  82 SW8       29.99R
REGINA         MOSUNNY   61  57  88 SE7       29.99S
SASKATOON      PTSUNNY   61  61 100 NW10      30.01R
VAL MARIE        N/A     55  50  82 E2          N/A
ROCKGLEN         N/A     61  57  88 SW5         N/A
$$




USA.gov is the U.S. government's official web portal to all federal, state and local government web resources and services.